Вернуться в каталог

COSMOS 2257

АктивенВоенныеPO
NORAD 22692·PAYLOAD·🇷🇺 Russia

Запущен Jun 24, 1993 с Plesetsk Cosmodrome

Loading…

Ближайшие Пролёты (ближайшие 24 часа)

TLE

СвежийSource: Space-Track

Эпоха: Sep 14, 2026, 04:13 UTC

1 22692U 93038F   26257.17624015  .00000028  00000-0  99197-4 0  9991
2 22692  82.5824 181.8552 0008613 143.1493 217.0191 12.62261080531014

Отслеживайте COSMOS 2257 в реальном времени с AllMySat

Download on the App Store